W5LND-10 Weather Reports


Display with metric or nautical units.
time (UTC)temp
F
wind
direction
speed
MPH
gust
MPH
rain 1hr
in
rain 24hr
in
rain mn
in
humidity
%
barometer
mb
20260906220019 96 198 6.0 11.0 0.00 0.00 0.00 35 1005.8
20260906215519 96 147 5.0 13.0 0.00 0.00 0.00 35 1005.8
20260906215019 96 180 4.0 9.0 0.00 0.00 0.00 35 1005.9
20260906214519 97 192 4.0 12.0 0.00 0.00 0.00 35 1006.0
20260906214019 96 165 2.0 6.0 0.00 0.00 0.00 35 1005.9
20260906213519 96 182 3.0 5.0 0.00 0.00 0.00 35 1006.0
20260906213019 95 184 4.0 10.0 0.00 0.00 0.00 35 1006.2
20260906212519 95 189 5.0 9.0 0.00 0.00 0.00 36 1006.2
20260906212019 95 192 7.0 10.0 0.00 0.00 0.00 36 1006.3
20260906211519 95 173 9.0 17.0 0.00 0.00 0.00 36 1006.5
20260906211019 96 142 7.0 17.0 0.00 0.00 0.00 35 1006.6
20260906210519 96 182 5.0 13.0 0.00 0.00 0.00 34 1006.6
20260906210019 96 201 4.0 10.0 0.00 0.00 0.00 35 1006.7
20260906205519 95 182 4.0 9.0 0.00 0.00 0.00 35 1006.8
20260906205019 95 154 6.0 7.0 0.00 0.00 0.00 36 1007.0
20260906204519 94 169 7.0 16.0 0.00 0.00 0.00 36 1007.0
20260906204019 95 155 6.0 13.0 0.00 0.00 0.00 35 1007.1
20260906203519 96 175 5.0 12.0 0.00 0.00 0.00 35 1007.2
20260906203019 96 153 6.0 10.0 0.00 0.00 0.00 36 1007.2
20260906202659 96 125 7.0 15.0 0.00 0.00 0.00 36 1007.2
20260906202019 95 146 6.0 12.0 0.00 0.00 0.00 36 1007.3
20260906201519 95 159 8.0 17.0 0.00 0.00 0.00 36 1007.4
20260906201019 95 157 6.0 18.0 0.00 0.00 0.00 36 1007.4
20260906200519 95 165 6.0 12.0 0.00 0.00 0.00 36 1007.5
20260906200019 94 163 7.0 16.0 0.00 0.00 0.00 37 1007.5
20260906195519 94 167 7.0 16.0 0.00 0.00 0.00 36 1007.6
20260906195019 93 176 5.0 12.0 0.00 0.00 0.00 37 1007.6
20260906194519 93 181 5.0 9.0 0.00 0.00 0.00 37 1007.7
20260906194019 93 243 5.0 12.0 0.00 0.00 0.00 38 1007.7
20260906193519 93 181 6.0 10.0 0.00 0.00 0.00 38 1007.8
20260906193019 92 158 7.0 14.0 0.00 0.00 0.00 38 1007.8
20260906192519 93 121 7.0 14.0 0.00 0.00 0.00 38 1007.8
20260906192019 93 167 5.0 9.0 0.00 0.00 0.00 38 1007.8
20260906191519 93 184 4.0 9.0 0.00 0.00 0.00 38 1007.9
20260906191019 94 144 4.0 13.0 0.00 0.00 0.00 37 1007.9
20260906190519 94 144 3.0 11.0 0.00 0.00 0.00 37 1007.9
20260906190019 94 249 4.0 11.0 0.00 0.00 0.00 38 1008.1
20260906185519 94 174 5.0 9.0 0.00 0.00 0.00 38 1008.2
20260906185019 94 200 5.0 10.0 0.00 0.00 0.00 38 1008.2
20260906184519 94 205 5.0 11.0 0.00 0.00 0.00 38 1008.2
20260906184019 95 243 5.0 9.0 0.00 0.00 0.00 38 1008.3
20260906183519 95 174 6.0 11.0 0.00 0.00 0.00 38 1008.4
20260906183019 94 193 5.0 11.0 0.00 0.00 0.00 38 1008.4
20260906182519 93 239 4.0 9.0 0.00 0.00 0.00 40 1008.5
20260906182019 92 231 6.0 8.0 0.00 0.00 0.00 41 1008.6
20260906181519 92 172 5.0 11.0 0.00 0.00 0.00 40 1008.8
20260906181019 92 136 4.0 14.0 0.00 0.00 0.00 40 1008.9
20260906180519 93 192 5.0 9.0 0.00 0.00 0.00 40 1009.0
20260906180019 93 171 5.0 9.0 0.00 0.00 0.00 40 1009.0
20260906175519 92 137 5.0 11.0 0.00 0.00 0.00 41 1009.1
20260906175019 93 150 6.0 10.0 0.00 0.00 0.00 41 1009.1
20260906174519 93 182 7.0 14.0 0.00 0.00 0.00 41 1009.2
20260906174019 92 159 6.0 15.0 0.00 0.00 0.00 42 1009.2
20260906173519 91 115 6.0 11.0 0.00 0.00 0.00 43 1009.4
20260906173019 91 179 7.0 12.0 0.00 0.00 0.00 44 1009.4
20260906172519 91 142 5.0 14.0 0.00 0.00 0.00 44 1009.5
20260906172019 91 153 5.0 12.0 0.00 0.00 0.00 44 1009.4
20260906171519 91 212 5.0 15.0 0.00 0.00 0.00 44 1009.5
20260906171019 91 159 6.0 16.0 0.00 0.00 0.00 43 1009.5
20260906170519 91 165 6.0 18.0 0.00 0.00 0.00 43 1009.6
20260906170019 91 148 5.0 13.0 0.00 0.00 0.00 44 1009.5
20260906165519 91 174 6.0 10.0 0.00 0.00 0.00 44 1009.5
20260906165019 91 146 7.0 11.0 0.00 0.00 0.00 44 1009.6
20260906164519 91 142 6.0 16.0 0.00 0.00 0.00 44 1009.6
20260906164019 90 147 4.0 13.0 0.00 0.00 0.00 46 1009.6
20260906163520 90 150 6.0 13.0 0.00 0.00 0.00 46 1009.6
20260906163020 90 198 7.0 12.0 0.00 0.00 0.00 47 1009.5
20260906162520 90 140 5.0 13.0 0.00 0.00 0.00 46 1009.5
20260906162020 90 130 4.0 9.0 0.00 0.00 0.00 48 1009.4
20260906161520 89 201 6.0 9.0 0.00 0.00 0.00 48 1009.4
20260906161020 89 178 6.0 13.0 0.00 0.00 0.00 48 1009.3
20260906160520 89 136 4.0 9.0 0.00 0.00 0.00 48 1009.3
20260906160020 89 144 5.0 8.0 0.00 0.00 0.00 48 1009.3
20260906155520 89 130 5.0 11.0 0.00 0.00 0.00 48 1009.2
20260906155020 89 140 4.0 8.0 0.00 0.00 0.00 49 1009.2
20260906154520 89 161 3.0 9.0 0.00 0.00 0.00 51 1009.2
20260906154020 88 159 3.0 7.0 0.00 0.00 0.00 51 1009.3
20260906153520 88 167 2.0 6.0 0.00 0.00 0.00 52 1009.1
20260906153020 88 163 2.0 7.0 0.00 0.00 0.00 53 1009.1
20260906152520 87 166 3.0 5.0 0.00 0.00 0.00 53 1009.0
20260906152020 87 167 2.0 7.0 0.00 0.00 0.00 54 1009.0
20260906151520 87 186 1.0 4.0 0.00 0.00 0.00 55 1009.1
20260906151020 86 187 1.0 4.0 0.00 0.00 0.00 55 1009.1
20260906150520 86 187 1.0 2.0 0.00 0.00 0.00 56 1009.0
20260906150020 85 187 1.0 3.0 0.00 0.00 0.00 57 1009.0
20260906145520 85 187 1.0 4.0 0.00 0.00 0.00 57 1009.1
20260906145020 85 188 1.0 2.0 0.00 0.00 0.00 58 1009.2
20260906144520 84 188 2.0 4.0 0.00 0.00 0.00 58 1009.3
20260906144020 84 189 2.0 4.0 0.00 0.00 0.00 60 1009.4
20260906143520 83 172 2.0 6.0 0.00 0.00 0.00 60 1009.4
20260906143020 83 172 2.0 6.0 0.00 0.00 0.00 60 1009.3
20260906142520 82 170 2.0 5.0 0.00 0.00 0.00 61 1009.4
20260906142020 82 169 3.0 6.0 0.00 0.00 0.00 62 1009.5
20260906141520 81 167 3.0 8.0 0.00 0.00 0.00 63 1009.4
20260906141020 81 169 2.0 6.0 0.00 0.00 0.00 64 1009.5
20260906140520 80 209 1.0 4.0 0.00 0.00 0.00 65 1009.5
20260906140020 80 211 1.0 3.0 0.00 0.00 0.00 66 1009.5
20260906135520 79 212 2.0 4.0 0.00 0.00 0.00 67 1009.6
20260906135020 79 213 2.0 5.0 0.00 0.00 0.00 67 1009.5
20260906134520 78 229 2.0 4.0 0.00 0.00 0.00 68 1009.5
20260906134020 78 229 1.0 4.0 0.00 0.00 0.00 68 1009.4
20260906133520 77 233 0.0 2.0 0.00 0.00 0.00 69 1009.3
20260906133020 77 234 0.0 0.0 0.00 0.00 0.00 70 1009.3
20260906132520 76 234 0.0 0.0 0.00 0.00 0.00 71 1009.2
20260906132020 76 234 0.0 1.0 0.00 0.00 0.00 71 1009.1
20260906131520 76 234 0.0 1.0 0.00 0.00 0.00 71 1009.2
20260906131020 76 234 255.0 0.0 0.00 0.00 0.00 72 1009.1
20260906130520 75 234 255.0 0.0 0.00 0.00 0.00 72 1009.1
20260906130020 75 234 0.0 0.0 0.00 0.00 0.00 72 1009.1
20260906125520 75 234 0.0 0.0 0.00 0.00 0.00 72 1009.1
20260906125020 75 234 0.0 0.0 0.00 0.00 0.00 71 1009.0
20260906124520 75 234 0.0 1.0 0.00 0.00 0.00 71 1008.9
20260906124020 75 234 0.0 0.0 0.00 0.00 0.00 71 1008.7
20260906123520 75 234 0.0 0.0 0.00 0.00 0.00 70 1008.7
20260906123020 75 234 0.0 1.0 0.00 0.00 0.00 70 1008.6
20260906122520 75 234 0.0 1.0 0.00 0.00 0.00 70 1008.7
20260906122020 76 246 0.0 1.0 0.00 0.00 0.00 70 1008.6
20260906121520 76 246 0.0 2.0 0.00 0.00 0.00 69 1008.5
20260906121020 76 246 0.0 0.0 0.00 0.00 0.00 69 1008.5
20260906120520 76 246 0.0 0.0 0.00 0.00 0.00 69 1008.3
20260906120020 76 246 0.0 0.0 0.00 0.00 0.00 69 1008.3
20260906115520 76 246 0.0 0.0 0.00 0.00 0.00 68 1008.3
20260906115020 76 246 0.0 0.0 0.00 0.00 0.00 68 1008.3
20260906114520 77 246 0.0 0.0 0.00 0.00 0.00 68 1008.2
20260906114020 77 246 0.0 1.0 0.00 0.00 0.00 68 1008.2
20260906113520 77 246 0.0 0.0 0.00 0.00 0.00 68 1008.3
20260906113020 77 246 0.0 0.0 0.00 0.00 0.00 67 1008.3
20260906112520 77 246 0.0 0.0 0.00 0.00 0.00 67 1008.2
20260906112020 78 246 0.0 0.0 0.00 0.00 0.00 67 1008.2
20260906111520 78 246 0.0 0.0 0.00 0.00 0.00 67 1008.1
20260906111020 78 246 0.0 0.0 0.00 0.00 0.00 67 1008.2
20260906110520 78 246 0.0 2.0 0.00 0.00 0.00 67 1008.0
20260906110020 78 246 1.0 3.0 0.00 0.00 0.00 67 1007.9
20260906105520 78 246 1.0 3.0 0.00 0.00 0.00 67 1007.9
20260906105020 78 245 1.0 3.0 0.00 0.00 0.00 67 1007.8
20260906104520 78 243 1.0 4.0 0.00 0.00 0.00 67 1007.7
20260906104020 78 242 1.0 3.0 0.00 0.00 0.00 66 1007.7
20260906103520 78 242 1.0 4.0 0.00 0.00 0.00 66 1007.7
20260906103020 78 242 1.0 5.0 0.00 0.00 0.00 66 1007.6
20260906102520 78 242 0.0 4.0 0.00 0.00 0.00 66 1007.7
20260906102020 78 242 0.0 2.0 0.00 0.00 0.00 66 1007.7
20260906101520 78 242 1.0 4.0 0.00 0.00 0.00 66 1007.7
20260906101020 78 242 1.0 4.0 0.00 0.00 0.00 66 1007.6
20260906100520 78 238 1.0 3.0 0.00 0.00 0.00 66 1007.6
20260906100020 78 237 2.0 5.0 0.00 0.00 0.00 65 1007.5
20260906095520 78 233 3.0 5.0 0.00 0.00 0.00 65 1007.4
20260906095020 79 232 2.0 6.0 0.00 0.00 0.00 65 1007.3
20260906094520 79 231 3.0 5.0 0.00 0.00 0.00 65 1007.3
20260906094020 79 231 4.0 8.0 0.00 0.00 0.00 64 1007.3
20260906093520 79 218 5.0 10.0 0.00 0.00 0.00 64 1007.3
20260906093020 79 240 5.0 10.0 0.00 0.00 0.00 64 1007.2
20260906092520 79 247 5.0 9.0 0.00 0.00 0.00 64 1007.2
20260906092020 79 242 4.0 11.0 0.00 0.00 0.00 65 1007.2
20260906091520 78 252 4.0 7.0 0.00 0.00 0.00 65 1007.2
20260906091020 79 237 4.0 8.0 0.00 0.00 0.00 65 1007.2
20260906090520 79 234 4.0 9.0 0.00 0.00 0.00 64 1007.2
20260906090020 79 239 4.0 6.0 0.00 0.00 0.00 64 1007.2
20260906085520 79 236 4.0 6.0 0.00 0.00 0.00 63 1007.2
20260906085020 80 234 4.0 8.0 0.00 0.00 0.00 63 1007.3
20260906084520 80 238 4.0 6.0 0.00 0.00 0.00 63 1007.3
20260906084020 80 232 5.0 9.0 0.00 0.00 0.00 63 1007.4
20260906083520 79 217 5.0 9.0 0.00 0.00 0.00 63 1007.3
20260906083020 80 232 5.0 9.0 0.00 0.00 0.00 63 1007.3
20260906082520 80 262 4.0 9.0 0.00 0.00 0.00 62 1007.2
20260906082021 80 244 5.0 9.0 0.00 0.00 0.00 62 1007.1
20260906081520 80 246 6.0 10.0 0.00 0.00 0.00 61 1007.1
20260906081021 81 238 5.0 12.0 0.00 0.00 0.00 61 1007.3
20260906080521 81 257 4.0 8.0 0.00 0.00 0.00 61 1007.3
20260906080021 81 246 4.0 8.0 0.00 0.00 0.00 61 1007.4
20260906075521 81 240 3.0 8.0 0.00 0.00 0.00 61 1007.6
20260906075021 81 248 2.0 8.0 0.00 0.00 0.00 60 1007.6
20260906074521 81 242 1.0 6.0 0.00 0.00 0.00 60 1007.6
20260906074021 81 242 1.0 4.0 0.00 0.00 0.00 60 1007.6
20260906073521 81 242 2.0 3.0 0.00 0.00 0.00 59 1007.6
20260906073021 81 241 3.0 5.0 0.00 0.00 0.00 59 1007.6
20260906072521 81 240 3.0 6.0 0.00 0.00 0.00 59 1007.5
20260906072021 81 239 4.0 5.0 0.00 0.00 0.00 59 1007.5
20260906071521 81 236 5.0 8.0 0.00 0.00 0.00 60 1007.4
20260906071021 81 227 5.0 8.0 0.00 0.00 0.00 59 1007.6
20260906070521 82 244 5.0 8.0 0.00 0.00 0.00 59 1007.6
20260906070021 82 232 5.0 11.0 0.00 0.00 0.00 59 1007.7
20260906065521 82 226 5.0 12.0 0.00 0.00 0.00 58 1007.7
20260906065021 82 229 5.0 11.0 0.00 0.00 0.00 57 1007.7
20260906064521 83 232 6.0 10.0 0.00 0.00 0.00 57 1007.8
20260906064021 82 209 6.0 10.0 0.00 0.00 0.00 58 1007.8
20260906063521 82 246 6.0 11.0 0.00 0.00 0.00 58 1007.8
20260906063021 82 229 6.0 12.0 0.00 0.00 0.00 58 1007.8
20260906062521 82 211 6.0 11.0 0.00 0.00 0.00 57 1007.8
20260906062021 83 212 5.0 10.0 0.00 0.00 0.00 57 1007.6
20260906061521 83 223 5.0 11.0 0.00 0.00 0.00 57 1007.7
20260906061021 83 238 6.0 10.0 0.00 0.00 0.00 57 1007.8
20260906060521 83 229 6.0 13.0 0.00 0.00 0.00 56 1007.7
20260906060021 83 215 6.0 14.0 0.00 0.00 0.00 56 1007.7
20260906055521 84 193 6.0 11.0 0.00 0.00 0.00 56 1007.8
20260906055021 84 214 6.0 13.0 0.00 0.00 0.00 56 1007.9
20260906054521 84 207 6.0 12.0 0.00 0.00 0.00 56 1008.0
20260906054021 84 215 6.0 16.0 0.00 0.00 0.00 55 1007.9
20260906053521 84 213 7.0 14.0 0.00 0.00 0.00 55 1007.9
20260906053021 84 257 7.0 13.0 0.00 0.00 0.00 55 1007.8
20260906052521 84 204 7.0 16.0 0.00 0.00 0.00 55 1007.9
20260906052021 85 229 7.0 13.0 0.00 0.00 0.00 54 1007.8
20260906051521 85 219 6.0 16.0 0.00 0.00 0.00 54 1007.8
20260906051021 85 240 6.0 11.0 0.00 0.00 0.00 53 1007.9
20260906050521 86 234 5.0 14.0 0.00 0.00 0.00 53 1007.9
20260906050021 86 241 5.0 13.0 0.00 0.00 0.00 52 1007.9
20260906045521 86 234 4.0 7.0 0.00 0.00 0.00 52 1007.9
20260906045021 86 240 4.0 6.0 0.00 0.00 0.00 51 1007.9
20260906044521 86 193 5.0 9.0 0.00 0.00 0.00 51 1007.9
20260906044021 87 202 5.0 9.0 0.00 0.00 0.00 50 1007.8
20260906043521 87 179 6.0 9.0 0.00 0.00 0.00 49 1007.8
20260906043021 87 182 6.0 10.0 0.00 0.00 0.00 48 1007.8
20260906042521 88 207 5.0 10.0 0.00 0.00 0.00 47 1007.8
20260906042021 88 200 5.0 11.0 0.00 0.00 0.00 47 1007.7
20260906041521 88 180 5.0 9.0 0.00 0.00 0.00 47 1007.6
20260906041021 88 188 5.0 8.0 0.00 0.00 0.00 47 1007.5
20260906040521 88 182 5.0 9.0 0.00 0.00 0.00 47 1007.5
20260906040021 88 192 5.0 9.0 0.00 0.00 0.00 47 1007.5
20260906035521 88 188 5.0 8.0 0.00 0.00 0.00 47 1007.3
20260906035021 88 190 5.0 9.0 0.00 0.00 0.00 47 1007.5
20260906034521 88 192 5.0 9.0 0.00 0.00 0.00 47 1007.5
20260906034021 88 193 4.0 7.0 0.00 0.00 0.00 47 1007.5
20260906033521 89 185 5.0 7.0 0.00 0.00 0.00 46 1007.4
20260906033021 89 188 5.0 7.0 0.00 0.00 0.00 46 1007.5
20260906032521 89 190 5.0 10.0 0.00 0.00 0.00 46 1007.3
20260906032021 89 188 4.0 7.0 0.00 0.00 0.00 45 1007.2
20260906031521 89 187 4.0 7.0 0.00 0.00 0.00 45 1007.1
20260906031021 89 186 4.0 6.0 0.00 0.00 0.00 44 1007.1
20260906030521 90 196 4.0 6.0 0.00 0.00 0.00 43 1007.0
20260906030021 90 188 4.0 6.0 0.00 0.00 0.00 43 1007.0
20260906025521 90 192 4.0 7.0 0.00 0.00 0.00 42 1006.9
20260906025021 90 186 5.0 7.0 0.00 0.00 0.00 42 1006.8
20260906024521 90 166 4.0 9.0 0.00 0.00 0.00 41 1006.8
20260906024021 90 169 4.0 9.0 0.00 0.00 0.00 41 1006.7
20260906023521 90 189 3.0 8.0 0.00 0.00 0.00 40 1006.7
20260906023021 90 169 3.0 7.0 0.00 0.00 0.00 39 1006.5
20260906022521 90 171 4.0 6.0 0.00 0.00 0.00 38 1006.4
20260906022021 90 168 3.0 6.0 0.00 0.00 0.00 38 1006.5
20260906021521 91 171 3.0 5.0 0.00 0.00 0.00 38 1006.5
20260906021021 91 167 3.0 5.0 0.00 0.00 0.00 38 1006.2
20260906020521 91 167 3.0 8.0 0.00 0.00 0.00 38 1006.1
20260906020021 91 167 3.0 6.0 0.00 0.00 0.00 38 1006.0
20260906015521 91 165 3.0 6.0 0.00 0.00 0.00 38 1006.0
20260906015021 91 166 3.0 5.0 0.00 0.00 0.00 37 1005.9
20260906014521 92 167 2.0 6.0 0.00 0.00 0.00 37 1005.9
20260906014021 92 167 1.0 4.0 0.00 0.00 0.00 36 1005.8
20260906013521 93 167 1.0 5.0 0.00 0.00 0.00 36 1005.7
20260906013021 93 167 1.0 3.0 0.00 0.00 0.00 35 1005.7
20260906012521 93 167 1.0 3.0 0.00 0.00 0.00 35 1005.6
20260906012021 93 167 2.0 3.0 0.00 0.00 0.00 35 1005.5
20260906011521 93 167 2.0 5.0 0.00 0.00 0.00 35 1005.4
20260906011021 94 167 2.0 6.0 0.00 0.00 0.00 34 1005.4
20260906010521 94 168 3.0 5.0 0.00 0.00 0.00 34 1005.5
20260906010021 94 168 3.0 5.0 0.00 0.00 0.00 34 1005.5
20260906005521 94 168 3.0 7.0 0.00 0.00 0.00 34 1005.4
20260906005021 94 163 3.0 7.0 0.00 0.00 0.00 34 1005.4
20260906004521 95 151 3.0 7.0 0.00 0.00 0.00 34 1005.3
20260906004021 95 154 4.0 7.0 0.00 0.00 0.00 33 1005.3
20260906003521 95 159 5.0 8.0 0.00 0.00 0.00 33 1005.3
20260906003021 95 140 6.0 10.0 0.00 0.00 0.00 33 1005.3
20260906002521 95 141 6.0 11.0 0.00 0.00 0.00 33 1005.2
20260906002021 95 139 5.0 9.0 0.00 0.00 0.00 33 1005.3
20260906001521 95 138 6.0 10.0 0.00 0.00 0.00 34 1005.2
20260906001021 95 134 6.0 11.0 0.00 0.00 0.00 33 1005.2
20260906000521 96 153 6.0 9.0 0.00 0.00 0.00 34 1005.1
20260906000021 96 178 6.0 11.0 0.00 0.00 0.00 34 1005.1
20260905235522 96 133 5.0 10.0 0.00 0.00 0.00 34 1005.0
20260905235021 96 159 5.0 7.0 0.00 0.00 0.00 34 1004.9
20260905234522 96 165 4.0 9.0 0.00 0.00 0.00 33 1004.8
20260905234022 96 138 3.0 9.0 0.00 0.00 0.00 34 1004.8
20260905233522 96 169 5.0 10.0 0.00 0.00 0.00 35 1004.9
20260905233022 96 158 6.0 11.0 0.00 0.00 0.00 35 1004.8
20260905232522 96 163 6.0 15.0 0.00 0.00 0.00 35 1004.8
20260905232022 97 129 6.0 9.0 0.00 0.00 0.00 34 1004.7
20260905231522 97 180 7.0 13.0 0.00 0.00 0.00 34 1004.7
20260905231022 97 179 6.0 13.0 0.00 0.00 0.00 34 1004.6
20260905230522 97 142 6.0 11.0 0.00 0.00 0.00 34 1004.6
20260905230022 97 119 5.0 12.0 0.00 0.00 0.00 34 1004.6
20260905225522 97 186 5.0 9.0 0.00 0.00 0.00 34 1004.6
20260905225022 97 181 7.0 13.0 0.00 0.00 0.00 34 1004.7
20260905224522 97 165 6.0 12.0 0.00 0.00 0.00 34 1004.7
20260905224022 97 144 7.0 10.0 0.00 0.00 0.00 34 1004.6
20260905223522 97 148 8.0 14.0 0.00 0.00 0.00 35 1004.7
20260905223022 98 179 7.0 14.0 0.00 0.00 0.00 34 1004.8
20260905222522 98 211 6.0 9.0 0.00 0.00 0.00 34 1004.8
20260905222022 98 175 5.0 9.0 0.00 0.00 0.00 33 1004.9
20260905221522 98 187 5.0 10.0 0.00 0.00 0.00 33 1004.8
20260905221022 98 168 5.0 10.0 0.00 0.00 0.00 34 1004.8
20260905220522 98 164 5.0 9.0 0.00 0.00 0.00 34 1004.9